Tracking 30701 objects as of 15-Jun-2025
HD Live streaming from Space Station
objects crossing your sky now

STARLINK-3998

Track STARLINK-3998 now!
10-day predictions
STARLINK-3998 is classified as:


NORAD ID: 52610
Int'l Code: 2022-052N
Perigee: 545.8 km
Apogee: 548.0 km
Inclination: 53.2 °
Period: 95.4 minutes
Semi major axis: 6917 km
RCS: Unknown
Launch date: May 14, 2022
Source: United States (US)
Launch site: AIR FORCE EASTERN TEST RANGE (AFETR)
Your satellite tracking list
Your tracking list is empty




NASA's NSSDC Master Catalog

Two Line Element Set (TLE):
1 52610U 22052N   25165.67930120 -.00001741  00000-0 -91351-4 0  9990
2 52610  53.2148  47.2606 0001576 102.3456 257.7713 15.08832234170695
Source of the keplerian elements: AFSPC